Location: Kavul?ru
(16.6288°N, 80.5832°E)
Time: 11:38:48
(UTC+00:00)

Cosmos 1461 - Pass Details

Date: 15 May 2026
Orbit: 422 x 476 km, 65.0° (Epoch: 8 June)

Event Time Altitude Azimuth Distance (km) Brightness Sun altitude
Rises 13:20:34 0° 172° (S) 2,511 5.9 -5.1°
Reaches altitude 10° 13:23:15 10° 151° (SSE) 1,642 4.8 -5.7°
Maximum altitude 13:25:41 17° 110° (ESE) 1,279 4.0 -6.3°
Drops below altitude 10° 13:28:07 10° 68° (ENE) 1,652 4.8 -6.8°
Sets 13:30:49 0° 47° (NE) 2,533 6.0 -7.4°
